Time,TemperatureF,DewpointF,PressureIn,WindDirection,WindDirectionDegrees,WindSpeedMPH,WindSpeedGustMPH,Humidity,HourlyPrecipIn,Conditions,Clouds,dailyrainin,SoftwareType,DateUTC
2013-12-27 00:42:00,-2.0,-6.0,30.18,South,180,3.0,6.0,84,-99.99,,,-99.99,,2013-12-27 05:42:00,
2013-12-27 01:22:00,-999.0,-99.9,30.19,South,185,3.0,6.0,83,-99.99,,,-99.99,,2013-12-27 06:22:00,
2013-12-27 01:32:00,-999.0,-99.9,30.19,South,185,3.0,6.0,83,-99.99,,,-99.99,,2013-12-27 06:32:00,
2013-12-27 01:43:00,-999.0,-99.9,30.19,South,185,3.0,6.0,83,-99.99,,,-99.99,,2013-12-27 06:43:00,
2013-12-27 02:02:00,-999.0,-99.9,30.19,South,170,3.0,8.0,82,-99.99,,,-99.99,,2013-12-27 07:02:00,
2013-12-27 02:12:00,-999.0,-99.9,30.19,SSE,165,4.0,7.0,82,-99.99,,,-99.99,,2013-12-27 07:12:00,
2013-12-27 02:42:00,-1.0,-5.0,30.19,South,185,4.0,7.0,81,-99.99,,,-99.99,,2013-12-27 07:42:00,
2013-12-27 02:52:00,-1.0,-6.0,30.19,South,185,4.0,8.0,80,-99.99,,,-99.99,,2013-12-27 07:52:00,
2013-12-27 03:22:00,-999.0,-99.9,30.19,South,190,4.0,6.0,80,-99.99,,,-99.99,,2013-12-27 08:22:00,
2013-12-27 03:32:00,-999.0,-99.9,30.19,South,175,2.0,6.0,80,-99.99,,,-99.99,,2013-12-27 08:32:00,
2013-12-27 03:42:00,-999.0,-99.9,30.19,South,180,3.0,6.0,81,-99.99,,,-99.99,,2013-12-27 08:42:00,
2013-12-27 03:52:00,-999.0,-99.9,30.19,South,175,3.0,7.0,80,-99.99,,,-99.99,,2013-12-27 08:52:00,
2013-12-27 04:02:00,-999.0,-99.9,30.19,SE,140,3.0,6.0,81,-99.99,,,-99.99,,2013-12-27 09:02:00,
2013-12-27 04:11:00,-999.0,-99.9,30.19,SE,140,3.0,6.0,81,-99.99,,,-99.99,,2013-12-27 09:11:00,
2013-12-27 04:22:00,-999.0,-99.9,30.20,South,180,2.0,5.0,81,-99.99,,,-99.99,,2013-12-27 09:22:00,
2013-12-27 04:43:00,2.0,-2.0,30.20,SSE,160,3.0,5.0,82,-99.99,,,-99.99,,2013-12-27 09:43:00,
2013-12-27 05:12:00,-999.0,-99.9,30.20,South,175,3.0,6.0,82,-99.99,,,-99.99,,2013-12-27 10:12:00,
2013-12-27 05:23:00,1.0,-3.0,30.20,South,175,4.0,6.0,82,-99.99,,,-99.99,,2013-12-27 10:23:00,
2013-12-27 05:33:00,-999.0,-99.9,30.19,SSE,165,4.0,7.0,83,-99.99,,,-99.99,,2013-12-27 10:33:00,
2013-12-27 06:22:00,0.0,-3.0,30.19,South,170,2.0,6.0,83,-99.99,,,-99.99,,2013-12-27 11:22:00,
2013-12-27 07:52:00,1.0,-3.0,30.19,South,170,6.0,9.0,83,-99.99,,,-99.99,,2013-12-27 12:52:00,
2013-12-27 08:22:00,1.0,-3.0,30.19,SSE,160,4.0,10.0,82,-99.99,,,-99.99,,2013-12-27 13:22:00,
2013-12-27 08:42:00,1.0,-3.0,30.19,South,180,5.0,9.0,82,-99.99,,,-99.99,,2013-12-27 13:42:00,
2013-12-27 09:22:00,1.0,-3.0,30.19,SSE,160,4.0,8.0,82,-99.99,,,-99.99,,2013-12-27 14:22:00,
2013-12-27 10:22:00,4.0,0.0,30.15,SSE,165,4.0,8.0,83,-99.99,,,-99.99,,2013-12-27 15:22:00,
2013-12-27 10:43:00,8.0,4.0,30.15,SSW,200,6.0,17.0,84,-99.99,,,-99.99,,2013-12-27 15:43:00,
2013-12-27 10:54:00,9.0,6.0,30.15,South,175,6.0,12.0,85,-99.99,,,-99.99,,2013-12-27 15:54:00,
2013-12-27 11:23:00,10.0,7.0,30.14,SSE,150,6.0,13.0,85,-99.99,,,-99.99,,2013-12-27 16:23:00,
2013-12-27 11:43:00,12.0,8.0,30.14,SSE,165,6.0,15.0,84,-99.99,,,-99.99,,2013-12-27 16:43:00,
2013-12-27 12:22:00,16.0,11.0,30.14,South,175,7.0,19.0,82,-99.99,,,-99.99,,2013-12-27 17:22:00,
2013-12-27 13:22:00,16.0,12.0,30.03,South,175,11.0,21.0,86,-99.99,,,-99.99,,2013-12-27 18:22:00,
2013-12-27 13:53:00,17.0,14.0,30.03,SSE,165,11.0,18.0,86,-99.99,,,-99.99,,2013-12-27 18:53:00,
2013-12-27 14:22:00,18.0,15.0,30.03,South,185,13.0,23.0,86,-99.99,,,-99.99,,2013-12-27 19:22:00,
2013-12-27 15:21:00,21.0,17.0,30.03,South,175,9.0,24.0,85,-99.99,,,-99.99,,2013-12-27 20:21:00,
2013-12-27 16:22:00,24.0,20.0,29.87,South,175,11.0,26.0,85,-99.99,,,-99.99,,2013-12-27 21:22:00,
2013-12-27 17:23:00,24.0,20.0,29.87,South,175,8.0,17.0,84,-99.99,,,-99.99,,2013-12-27 22:23:00,
2013-12-27 18:22:00,25.0,21.0,29.86,South,175,10.0,28.0,84,-99.99,,,-99.99,,2013-12-27 23:22:00,
2013-12-27 19:42:00,26.0,21.0,29.85,South,185,6.0,15.0,82,-99.99,,,-99.99,,2013-12-28 00:42:00,
2013-12-27 19:52:00,26.0,22.0,29.85,SSW,200,7.0,14.0,84,-99.99,,,-99.99,,2013-12-28 00:52:00,
2013-12-27 20:22:00,26.0,22.0,29.85,SSW,200,5.0,13.0,83,-99.99,,,-99.99,,2013-12-28 01:22:00,
2013-12-27 21:21:00,27.0,22.0,29.85,South,190,4.0,13.0,83,-99.99,,,-99.99,,2013-12-28 02:21:00,
2013-12-27 23:22:00,29.0,24.0,29.85,SSW,205,4.0,7.0,82,-99.99,,,-99.99,,2013-12-28 04:22:00,